TIME,DELAY(SENSOR),PRES,OXYGEN,RAWTEMP,T(OPTODE),TCPHASE,FLUOR,BETA(BETA700),BETA(BETA412),BETA(BETA440),CDOM,C(CSC),ED(ED412.40),ED(ED444.00),ED(ED489.70),ED(ED554.30),LU(LU411.80),LU(LU443.40),LU(LU489.60),LU(LU554.10),COMP,TILTX,TILTY,CHECK
1375239609,5808,854.9299926757812000,45.2445716857910160,661.2125854492188000,4.5880408287048340,54.2337303161621100,53,101,84,79,79,15345,2147749714,2147421961,2148014006,2147872676,2147640082,2147052214,2148259721,2147198290,2751,4,13,13519
1375243205,5807,943.7199707031250000,48.9471282958984400,670.7078857421875000,4.2748088836669920,53.8254890441894500,53,98,86,77,78,15344,2147758116,2147421138,2148017316,2147874340,2147642770,2147055369,2148264548,2147197339,3042,4,13,52635
1375246805,5808,957.3300170898438000,51.5378494262695300,672.8375244140625000,4.2044200897216800,53.4919204711914060,53,98,87,78,79,15345,2147757622,2147427538,2148013595,2147875008,2147642166,2147048731,2148256640,2147198134,525,4,13,61396
1375250405,5811,1001.2600097656250000,50.8793106079101560,675.1207275390625000,4.1288909912109375,53.6141815185546900,53,98,89,78,80,15342,2147755958,2147425435,2148013915,2147874468,2147641206,2147050230,2148261979,2147198418,195,4,13,30093
1375254005,5805,996.4899902343750000,50.5341796875000000,674.5798950195312000,4.1467862129211430,53.6514396667480500,53,98,86,79,79,15342,2147757184,2147426240,2148016219,2147875090,2147641453,2147056374,2148260004,2147199113,869,4,13,10989
1375257605,5809,1003.6699829101562000,50.5872192382812500,675.0092773437500000,4.1325798034667970,53.6497192382812500,52,96,83,78,80,15343,2147756096,2147425033,2148015286,2147875181,2147642203,2147054701,2148263616,2147193307,113,4,13,41087
1375261205,5807,999.2199707031250000,51.0851402282714840,676.4390869140625000,4.0852527618408200,53.6035385131835940,52,99,85,83,79,15333,2147759899,2147423113,2148016009,2147875190,2147643236,2147051840,2148263241,2147193792,3247,3,13,61146
1375264805,5813,1004.8599853515625000,50.8840293884277340,676.9287719726562000,4.0690379142761230,53.6340904235839840,52,98,86,79,79,15343,2147757357,2147422774,2148012050,2147874934,2147642843,2147053906,2148262893,2147196461,28,4,13,30117
1375268405,5811,1004.5800170898438000,50.9525794982910160,676.5941772460938000,4.0801181793212890,53.6219596862793000,53,97,88,77,79,15341,2147755465,2147423424,2148016411,2147874560,2147642139,2147053878,2148263506,2147196928,3525,4,13,6705
1375272005,5811,999.2700195312500000,50.7209091186523440,676.9171752929688000,4.0694217681884770,53.6572799682617200,52,97,84,78,80,15342,2147754038,2147425115,2148013686,2147873499,2147642057,2147056109,2148261732,2147191835,90,4,13,47945
1375275605,5809,1003.9699707031250000,51.4504318237304700,677.7504882812500000,4.0418281555175780,53.5664482116699200,53,97,86,79,80,15342,2147757037,2147426340,2148015616,2147872630,2147642413,2147053357,2148262162,2147196635,3389,3,13,14936
1375279205,5808,1008.3200073242188000,51.5740013122558600,677.8417968750000000,4.0388031005859375,53.5546798706054700,53,99,85,79,79,15342,2147757138,2147424502,2148012900,2147875081,2147641225,2147056932,2148262985,2147196096,247,3,13,34578
1375282805,5811,1006.6400146484375000,51.0824394226074200,676.6383056640625000,4.0786571502685550,53.6039505004882800,53,99,85,78,80,15341,2147755373,2147423186,2148013851,2147875986,2147642587,2147055734,2148259309,2147193746,388,4,13,30134
1375286405,5811,1007.3400268554688000,50.7585411071777340,677.3656005859375000,4.0545749664306640,53.6588401794433600,52,97,88,79,78,15341,2147753280,2147423917,2148015780,2147870656,2147641993,2147049206,2148258285,2147199597,123,4,13,23183
1375290005,5810,1008.7299804687500000,51.0976600646972660,677.5197753906250000,4.0494689941406250,53.6132392883300800,52,97,103,79,79,15336,2147753755,2147423232,2148013056,2147871917,2147641371,2147052608,2148261293,2147200941,18,4,13,54586
1375293605,5804,1011.8499755859375000,51.0065307617187500,677.4655761718750000,4.0512638092041020,53.6292304992675800,52,101,84,77,78,15339,2147753947,2147422930,2148011465,2147874980,2147641408,2147054217,2148264338,2147197037,320,4,13,10223
1375297205,5807,1009.1699829101562000,50.8017997741699200,677.6787109375000000,4.0442051887512210,53.6543998718261700,51,99,85,78,79,15339,2147757878,2147424832,2148013714,2147874624,2147643264,2147052891,2148260800,2147193792,209,4,13,1921
1375300805,5806,1006.7700195312500000,51.5166091918945300,677.6168212890625000,4.0462570190429690,53.5569801330566400,52,98,84,79,79,15334,2147757915,2147425920,2148015917,2147873782,2147643620,2147059520,2148258925,2147196708,3562,3,14,662
1375304405,5806,1016.4299926757812000,51.2150497436523440,676.6909179687500000,4.0769181251525880,53.5904884338378900,52,99,83,78,79,15335,2147757513,2147424850,2148012324,2147875574,2147641764,2147054272,2148265526,2147195693,3592,4,13,60896
1375308005,5808,1016.9000244140625000,51.0849800109863300,677.2133178710938000,4.0596179962158200,53.6152915954589840,52,99,84,80,78,15334,2147758537,2147423652,2148013906,2147874285,2147643556,2147049929,2148262317,2147197622,3420,3,13,7932
1375311605,5807,1019.6199951171875000,51.0188407897949200,676.3983764648438000,4.0865988731384280,53.6128082275390600,53,97,84,78,80,15334,2147757156,2147423780,2148011136,2147876224,2147644937,2147053229,2148267136,2147197312,225,4,13,14359
1375315205,5807,1018.6500244140625000,50.0649681091308600,676.1987915039062000,4.0932078361511230,53.7374382019043000,53,96,86,80,78,15332,2147759332,2147426413,2148010395,2147874934,2147643419,2147056941,2148265545,2147194852,3465,4,13,24997
1375318805,5807,1023.2199707031250000,50.6370582580566400,675.9053955078125000,4.1029219627380370,53.6552009582519500,52,99,83,79,79,15329,2147758537,2147425472,2148014701,2147875510,2147645641,2147052004,2148266505,2147195885,480,4,13,25770
1375322405,5810,1017.0000000000000000,50.1835517883300800,675.7297973632812000,4.1087341308593750,53.7131004333496100,53,99,84,79,78,15330,2147755145,2147423222,2148012900,2147873764,2147642880,2147053229,2148263222,2147197997,318,4,13,452
1375326005,5810,1013.7700195312500000,50.1488189697265600,676.3109741210938000,4.0894970893859860,53.7279815673828100,53,99,87,78,79,15325,2147755318,2147424905,2148012178,2147874550,2147638957,2147053942,2148259693,2147195529,872,4,13,24311
1375329605,5806,1007.3300170898438000,50.7305603027343750,678.0225219726562000,4.0328202247619630,53.6725387573242200,52,99,86,78,80,15323,2147761170,2147424045,2148014244,2147876032,2147640448,2147053833,2148260470,2147199853,311,4,13,52580
1375333205,5810,1011.5399780273438000,50.8311195373535160,677.3743286132812000,4.0542869567871090,53.6507606506347660,53,98,88,78,80,15326,2147760265,2147427739,2148011730,2147873060,2147640265,2147054290,2148263835,2147195922,375,4,13,12103
1375336805,5809,1013.6400146484375000,50.8331794738769500,677.9193115234375000,4.0362358093261720,53.6577682495117200,52,103,86,78,78,15328,2147759552,2147424566,2148012726,2147874523,2147642852,2147054875,2148261092,2147197595,81,4,13,26143
1375340405,5809,1016.6099853515625000,51.3224105834960940,677.8311767578125000,4.0391540527343750,53.5873718261718750,52,96,84,78,78,15323,2147754011,2147423469,2148010395,2147875154,2147643904,2147051456,2148264649,2147198189,242,4,13,1032
1375344005,5811,1021.0000000000000000,50.1066589355468750,676.8477783203125000,4.0717239379882810,53.7423400878906250,52,98,86,78,78,15325,2147756123,2147423524,2148014116,2147874258,2147643977,2147053092,2148265490,2147193837,389,4,13,60802
1375347605,5810,1015.0900268554688000,50.5535392761230500,677.5858154296875000,4.0472807884216310,53.6914787292480500,52,99,85,79,78,15326,2147756050,2147426624,2148011145,2147872603,2147641389,2147050962,2148262939,2147198134,93,4,13,51784
1375351205,5809,1013.9799804687500000,50.9528198242187500,677.5913085937500000,4.0471000671386720,53.6358985900878900,53,99,85,79,80,15324,2147754706,2147425152,2148012260,2147874038,2147640795,2147054445,2148266285,2147194258,197,4,13,49114
1375354805,5811,1020.3900146484375000,50.4567985534668000,677.6810302734375000,4.0441298484802250,53.7011108398437500,53,99,85,78,80,15324,2147751204,2147423844,2148013778,2147876946,2147644123,2147056374,2148264420,2147194523,114,4,13,41802
1375358405,5806,1024.1500244140625000,50.0790214538574200,677.0648803710938000,4.0645308494567870,53.7451591491699200,52,99,86,79,79,15317,2147758838,2147427876,2148012022,2147873115,2147641627,2147053485,2148264475,2147194304,175,4,13,1327
1375362005,5810,1019.9600219726562000,50.8072891235351560,677.4575195312500000,4.0515332221984860,53.6519889831543000,52,97,84,79,78,15323,2147755410,2147428681,2148012809,2147873142,2147641673,2147059666,2148264813,2147196452,489,3,13,42137
1375365605,5808,1015.9299926757812000,51.4227790832519500,678.2556152343750000,4.0250968933105470,53.5783081054687500,53,100,86,78,81,15319,2147753115,2147423680,2148010139,2147874496,2147642880,2147056064,2148263625,2147192502,128,4,13,40455
1375369205,5808,1020.0999755859375000,50.6605300903320300,676.9780883789062000,4.0674080848693850,53.6694297790527340,52,98,86,80,80,15318,2147753654,2147425956,2148013842,2147874075,2147643309,2147050422,2148260800,2147197293,3355,4,13,29168
1375372805,5807,1020.4199829101562000,50.8582000732421900,676.5416870117188000,4.0818557739257810,53.6324195861816400,53,100,85,78,79,15315,2147757458,2147423277,2148013824,2147871899,2147640768,2147051565,2148263222,2147198802,3083,4,13,37789
1375376405,5810,1018.1799926757812000,50.6156692504882800,677.4049072265625000,4.0532741546630860,53.6833915710449200,53,100,86,79,79,15317,2147755666,2147425270,2148013083,2147874770,2147643821,2147052653,2148262601,2147198235,3490,4,13,8550
1375380005,5810,1017.9299926757812000,51.0574111938476560,677.6614990234375000,4.0447750091552730,53.6199302673339840,51,98,87,78,80,15311,2147755456,2147421412,2148012507,2147872448,2147639424,2147051593,2148261549,2147197522,55,4,13,9189
1375383355,5808,1019.8400268554688000,50.9822082519531250,677.7576904296875000,4.0415878295898440,53.6354408264160160,52,100,86,79,78,15325,2147757092,2147424576,2148014573,2147873718,2147637961,2147051145,2148262564,2147196443,255,3,13,20126
